{"data":{"norad_id":65802,"epoch":"2026-05-25T03:15:11.855232Z","epoch_age_seconds":53409,"freshness":"FRESH","line1":"1 65802U 25218M   26145.13555388  .00001814  00000+0  12969-3 0  9998","line2":"2 65802  97.4486   7.9415 0002344  74.3683 285.7802 15.05659416 36475","mean_motion":15.05659416,"eccentricity":0.0002344,"inclination_deg":97.4486,"raan_deg":7.9415,"arg_perigee_deg":74.3683,"mean_anomaly_deg":285.7802,"bstar":0.00012969,"rev_number":3647,"period_min":95.639158809604,"perigee_km":547.8584375859,"apogee_km":551.1061055004,"semimajor_km":6927.6192715431,"source":"CELESTRAK","updated_at":"2026-05-25T13:38:20.938292Z"}}